Date String (YYYY-MM-DD hh:mm:ss) UTC,Instrument flags,absolute air pressure of the measurement (hPa),sample flow rate (lpm),inlet stack bypass flow (lpm),air temperature of the measurement (°C),ambient temperature measured by the external sensor (°C),aerosol sample conditioner tube jacket temperature (°C),OPC LED temperature (°C),internal box temperature (°C),relative humidity of the measurement (%),span deviation,mass concentration of particles derived from Lorenz-Mie calculation of OPC scattering (μg/m³),mass concentration of particles derived from Lorenz-Mie calculation of OPC scattering (μg/m³),mass concentration of particles derived from Lorenz-Mie calculation of OPC scattering (μg/m³)
DateTimeUTC,F1_M11,P_M11,Q1_M11,Q2_M11,T1_M11,T2_M11,T3_M11,T4_M11,T5_M11,U1_M11,ZSPAN_M11,X0_M11,X2_M11,X1_M11
2023-12-02 14:00:00,SystemResetWarning,0821.0,5.00,000.00,018.7,017.7,000.0,027.2,020.0,10.8,0000.0,0002.71,0002.00,0001.77
2023-12-02 14:01:00,SystemResetWarning,0821.1,5.01,000.00,018.7,017.6,000.0,027.3,020.0,10.7,0000.0,0002.59,0001.89,0001.67
2023-12-02 14:02:00,SystemResetWarning,0821.0,5.01,000.00,018.7,017.6,000.0,027.3,020.0,10.7,0000.0,0002.46,0001.79,0001.61
2023-12-02 14:03:00,SystemResetWarning,0821.0,5.01,000.00,018.7,017.6,000.0,027.2,020.0,10.6,0000.0,0002.39,0001.71,0001.54
2023-12-02 14:04:00,SystemResetWarning,0821.1,5.00,000.00,018.7,017.5,000.0,027.2,020.0,10.7,0000.0,0002.31,0001.66,0001.50
2023-12-02 14:05:00,SystemResetWarning,0821.1,5.00,000.00,018.7,017.5,000.0,027.3,020.0,10.5,0000.0,0002.22,0001.58,0001.42
2023-12-02 14:06:00,SystemResetWarning,0821.0,4.99,000.00,018.7,017.5,000.0,027.3,020.0,10.5,0000.0,0002.01,0001.45,0001.29
2023-12-02 14:07:00,SystemResetWarning,0821.0,4.99,000.00,018.7,017.4,000.0,027.2,020.0,10.3,0000.0,0003.34,0001.30,0001.15
2023-12-02 14:08:00,SystemResetWarning,0821.1,5.00,000.00,018.7,017.4,000.0,027.2,020.1,10.2,0000.0,0003.66,0001.16,0001.03
2023-12-02 14:09:00,SystemResetWarning,0821.1,5.01,000.00,018.8,017.8,000.0,027.2,020.5,10.2,0000.0,0003.95,0001.07,0000.94
2023-12-02 14:10:00,SystemResetWarning,0821.0,5.00,000.00,018.9,018.7,000.0,027.2,020.9,10.1,0000.0,0004.18,0000.99,0000.86
2023-12-02 14:11:00,SystemResetWarning,0820.9,4.98,000.00,019.0,018.8,000.0,027.2,020.6,10.0,0000.0,0004.53,0000.94,0000.81
2023-12-02 14:12:00,SystemResetWarning,0821.0,5.00,000.00,019.0,018.7,000.0,027.2,020.3,10.0,0000.0,0004.56,0000.92,0000.76
2023-12-02 14:13:00,SystemResetWarning,0821.0,5.00,000.00,018.9,018.4,000.0,027.2,020.0,10.1,0000.0,0004.51,0000.85,0000.67
2023-12-02 14:14:00,SystemResetWarning,0821.0,5.00,000.00,018.9,018.2,000.0,027.3,020.0,10.3,0000.0,0004.41,0000.77,0000.60
2023-12-02 14:15:00,SystemResetWarning,0821.0,5.00,000.00,018.9,018.1,000.0,027.3,020.0,10.3,0000.0,0005.00,0000.71,0000.52
2023-12-02 14:16:00,SystemResetWarning,0821.1,5.00,000.00,018.8,017.9,000.0,027.3,020.0,10.4,0000.0,0005.61,0000.70,0000.49
2023-12-02 14:17:00,SystemResetWarning,0821.0,5.00,000.00,018.8,017.8,000.0,027.3,020.0,10.6,0000.0,0005.59,0000.69,0000.49
2023-12-02 14:18:00,SystemResetWarning,0821.0,5.00,000.00,018.8,017.6,000.0,027.3,020.0,10.5,0000.0,0005.12,0000.70,0000.49
2023-12-02 14:19:00,SystemResetWarning,0821.1,5.00,000.00,018.8,017.5,000.0,027.3,020.0,10.7,0000.0,0004.81,0000.70,0000.48
2023-12-02 14:20:00,SystemResetWarning,0821.0,5.00,000.00,018.8,017.4,000.0,027.3,020.0,10.7,0000.0,0004.54,0000.70,0000.49
2023-12-02 14:21:00,SystemResetWarning,0820.9,5.00,000.00,018.8,017.3,000.0,027.3,020.0,10.8,0000.0,0005.99,0000.70,0000.48
2023-12-02 14:22:00,SystemResetWarning,0820.9,5.00,000.00,018.7,017.2,000.0,027.3,020.0,10.9,0000.0,0005.59,0000.70,0000.47
2023-12-02 14:23:00,SystemResetWarning,0821.0,4.99,000.00,018.7,017.2,000.0,027.3,020.0,11.0,0000.0,0005.54,0000.68,0000.47
2023-12-02 14:24:00,SystemResetWarning,0821.1,5.00,000.00,018.7,017.1,000.0,027.3,020.0,10.7,0000.0,0005.49,0000.67,0000.47
2023-12-02 14:25:00,SystemResetWarning,0821.1,5.00,000.00,018.7,017.1,000.0,027.3,020.0,10.7,0000.0,0005.53,0000.69,0000.47
2023-12-02 14:26:00,SystemResetWarning,0820.9,5.00,000.00,018.7,017.1,000.0,027.3,020.1,10.9,0000.0,0005.18,0000.70,0000.48
2023-12-02 14:27:00,SystemResetWarning,0821.0,5.01,000.00,018.8,017.7,000.0,027.2,020.5,10.7,0000.0,0004.35,0000.69,0000.49
2023-12-02 14:28:00,SystemResetWarning,0821.0,5.00,000.00,018.9,018.6,000.0,027.2,020.9,10.5,0000.0,0004.44,0000.72,0000.50
2023-12-02 14:29:00,SystemResetWarning,0821.0,5.00,000.00,019.0,018.8,000.0,027.2,020.7,10.3,0000.0,0003.63,0000.72,0000.50
2023-12-02 14:30:00,SystemResetWarning,0821.0,4.99,000.00,019.0,018.7,000.0,027.2,020.4,10.4,0000.0,0003.11,0000.70,0000.51
2023-12-02 14:31:00,SystemResetWarning,0821.0,4.99,000.00,019.0,018.5,000.0,027.2,020.0,10.4,0000.0,0002.94,0000.69,0000.51
2023-12-02 14:32:00,SystemResetWarning,0821.0,5.00,000.00,018.9,018.2,000.0,027.3,020.0,10.4,0000.0,0001.76,0000.67,0000.52
2023-12-02 14:33:00,SystemResetWarning,0821.0,5.00,000.00,018.9,018.1,000.0,027.3,020.0,10.5,0000.0,0001.09,0000.69,0000.53
2023-12-02 14:34:00,SystemResetWarning,0821.0,5.00,000.00,018.8,017.9,000.0,027.2,020.0,10.5,0000.0,0001.10,0000.70,0000.54
2023-12-02 14:35:00,SystemResetWarning,0821.1,5.00,000.00,018.8,017.7,000.0,027.2,020.0,10.7,0000.0,0001.09,0000.69,0000.54
2023-12-02 14:36:00,SystemResetWarning,0821.1,5.00,000.00,018.8,017.6,000.0,027.3,020.0,10.7,0000.0,0001.09,0000.69,0000.54
2023-12-02 14:37:00,SystemResetWarning,0821.1,5.00,000.00,018.8,017.5,000.0,027.3,020.0,10.7,0000.0,0001.15,0000.69,0000.54
2023-12-02 14:38:00,SystemResetWarning,0821.1,5.01,000.00,018.8,017.4,000.0,027.3,020.0,10.6,0000.0,0001.24,0000.67,0000.54
2023-12-02 14:39:00,SystemResetWarning,0821.0,5.01,000.00,018.8,017.3,000.0,027.3,020.0,10.7,0000.0,0001.13,0000.64,0000.54
2023-12-02 14:40:00,SystemResetWarning,0821.0,5.00,000.00,018.7,017.3,000.0,027.3,020.0,10.8,0000.0,0001.21,0000.66,0000.54
2023-12-02 14:41:00,SystemResetWarning,0821.0,5.00,000.00,018.7,017.2,000.0,027.3,020.0,10.6,0000.0,0001.37,0000.71,0000.56
2023-12-02 14:42:00,SystemResetWarning,0821.0,5.00,000.00,018.7,017.2,000.0,027.3,020.0,10.6,0000.0,0001.54,0000.73,0000.56
2023-12-02 14:43:00,SystemResetWarning,0820.9,4.99,000.00,018.7,017.2,000.0,027.2,020.0,10.5,0000.0,0001.89,0000.75,0000.57
2023-12-02 14:44:00,SystemResetWarning,0820.9,5.00,000.00,018.7,017.1,000.0,027.2,020.0,10.4,0000.0,0001.92,0000.76,0000.57
2023-12-02 14:45:00,SystemResetWarning,0821.0,5.00,000.00,018.7,017.2,000.0,027.2,020.2,10.3,0000.0,0001.85,0000.74,0000.57
2023-12-02 14:46:00,SystemResetWarning,0821.1,5.02,000.00,018.8,018.0,000.0,027.2,020.6,10.3,0000.0,0001.82,0000.73,0000.57
2023-12-02 14:47:00,SystemResetWarning,0821.0,4.99,000.00,019.0,018.9,000.0,027.2,021.0,10.4,0000.0,0002.18,0000.76,0000.59
2023-12-02 14:48:00,SystemResetWarning,0821.0,4.98,000.00,019.0,018.9,000.0,027.2,020.6,10.3,0000.0,0002.16,0000.77,0000.59
2023-12-02 14:49:00,SystemResetWarning,0821.1,5.01,000.00,019.0,018.7,000.0,027.2,020.3,10.2,0000.0,0001.97,0000.77,0000.61
2023-12-02 14:50:00,SystemResetWarning,0821.1,5.00,000.00,018.9,018.4,000.0,027.2,020.0,10.5,0000.0,0001.98,0000.79,0000.62
2023-12-02 14:51:00,SystemResetWarning,0821.0,5.00,000.00,018.9,018.2,000.0,027.3,020.0,10.6,0000.0,0001.98,0000.80,0000.63
2023-12-02 14:52:00,SystemResetWarning,0821.1,5.00,000.00,018.8,018.0,000.0,027.2,020.0,10.5,0000.0,0001.82,0000.76,0000.63
2023-12-02 14:53:00,SystemResetWarning,0821.0,5.01,000.00,018.8,017.8,000.0,027.2,020.0,10.5,0000.0,0001.88,0000.76,0000.62
2023-12-02 14:54:00,SystemResetWarning,0821.1,5.01,000.00,018.8,017.6,000.0,027.2,020.0,10.5,0000.0,0001.54,0000.78,0000.62
2023-12-02 14:55:00,SystemResetWarning,0821.1,5.00,000.00,018.8,017.4,000.0,027.2,020.0,10.8,0000.0,0001.55,0000.79,0000.63
2023-12-02 14:56:00,SystemResetWarning,0821.1,4.99,000.00,018.8,017.3,000.0,027.2,020.0,10.8,0000.0,0001.78,0000.83,0000.63
2023-12-02 14:57:00,SystemResetWarning,0821.0,4.99,000.00,018.8,017.2,000.0,027.2,020.0,10.8,0000.0,0001.88,0000.87,0000.65
2023-12-02 14:58:00,SystemResetWarning,0821.1,5.00,000.00,018.8,017.2,000.0,027.2,020.0,10.6,0000.0,0001.67,0000.87,0000.65
2023-12-02 14:59:00,SystemResetWarning,0821.2,5.00,000.00,018.8,017.1,000.0,027.2,020.0,10.9,0000.0,0001.65,0000.86,0000.65
